PRSAU SBSV-SDIH

Flight info

Callsign PRSAU
Flight time 3h 45m
Altitude 9000
Route REA DCT 1257S03821W 1301S03828W 1300S03831W 1307S03847W 1323S03854W 1629S03904W 1643S03906W 1952S04005W 2003S04011W 2011S04011W 2231S04204W 2257S04229W 2302S04300W 2305S04328W 2314S04407W 2318S04427W 2331S04504W 2331S04550W DCT
Aircraft LEG2/L-SDGRY/S

Departure

Time 2026-05-04 23:04
Airport Deputado Luiz Eduardo Magalhães International Airport (SBSV)

Arrival

Time 2026-05-05 02:49
Airport Fazenda Irohy Airport (SDIH)
Time Latitude Longitude Altitude Speed Heading
2026-05-04 22:22 -12.91073 -38.34391 34 ft 0 kts 56°
2026-05-04 22:56 -12.91065 -38.34383 34 ft 2 kts
2026-05-04 22:57 -12.91049 -38.34393 33 ft 3 kts 326°
2026-05-04 22:57 -12.91029 -38.34407 33 ft 3 kts 318°
2026-05-04 22:57 -12.91011 -38.34425 33 ft 3 kts 317°
2026-05-04 22:57 -12.90990 -38.34442 33 ft 3 kts 324°
2026-05-04 22:58 -12.90967 -38.34435 33 ft 4 kts 58°
2026-05-04 22:58 -12.90945 -38.34404 32 ft 6 kts 53°
2026-05-04 22:58 -12.90934 -38.34389 32 ft 1 kts 54°
2026-05-04 22:58 -12.90923 -38.34372 32 ft 1 kts 54°
2026-05-04 22:59 -12.90921 -38.34370 32 ft 0 kts 56°
2026-05-04 23:01 -12.90914 -38.34360 32 ft 3 kts 53°
2026-05-04 23:01 -12.90896 -38.34335 33 ft 5 kts 52°
2026-05-04 23:01 -12.90880 -38.34298 34 ft 3 kts 142°
2026-05-04 23:02 -12.90884 -38.34295 34 ft 0 kts 143°
2026-05-04 23:03 -12.90886 -38.34293 34 ft 3 kts 141°
2026-05-04 23:03 -12.91032 -38.34185 31 ft 55 kts 142°
2026-05-04 23:03 -12.91493 -38.33839 51 ft 103 kts 143°
2026-05-04 23:03 -12.92166 -38.33373 198 ft 131 kts 144°
2026-05-04 23:04 -12.93122 -38.33171 401 ft 158 kts 187°
2026-05-04 23:04 -12.94088 -38.33827 611 ft 183 kts 228°
2026-05-04 23:04 -12.95022 -38.34781 842 ft 193 kts 215°
2026-05-04 23:04 -12.95980 -38.35783 1057 ft 207 kts 237°
2026-05-04 23:05 -12.96647 -38.37118 1275 ft 213 kts 238°
2026-05-04 23:05 -12.97352 -38.38480 1495 ft 217 kts 238°
2026-05-04 23:05 -12.98066 -38.39846 1710 ft 220 kts 237°
2026-05-04 23:05 -12.98800 -38.41241 1929 ft 222 kts 237°
2026-05-04 23:06 -12.99534 -38.42638 2144 ft 224 kts 237°
2026-05-04 23:06 -13.00277 -38.44051 2361 ft 225 kts 237°
2026-05-04 23:06 -13.01019 -38.45464 2583 ft 225 kts 237°
2026-05-04 23:06 -13.01620 -38.46955 2798 ft 232 kts 259°
2026-05-04 23:07 -13.01493 -38.48598 3009 ft 235 kts 273°
2026-05-04 23:07 -13.01320 -38.50256 3228 ft 234 kts 272°
2026-05-04 23:07 -13.01155 -38.51927 3451 ft 234 kts 272°
2026-05-04 23:07 -13.01169 -38.53578 3674 ft 228 kts 250°
2026-05-04 23:08 -13.01841 -38.55046 3630 ft 233 kts 239°
2026-05-04 23:08 -13.02557 -38.56544 3449 ft 231 kts 240°
2026-05-04 23:08 -13.03243 -38.58002 3259 ft 225 kts 240°
2026-05-04 23:08 -13.03919 -38.59439 3068 ft 221 kts 240°
2026-05-04 23:09 -13.04586 -38.60857 2873 ft 218 kts 240°
2026-05-04 23:09 -13.05244 -38.62257 2681 ft 218 kts 240°
2026-05-04 23:09 -13.05912 -38.63678 2487 ft 222 kts 240°
2026-05-04 23:09 -13.06584 -38.65107 2331 ft 223 kts 240°
2026-05-04 23:10 -13.07246 -38.66517 2308 ft 217 kts 240°
2026-05-04 23:10 -13.07895 -38.67899 2301 ft 214 kts 240°
2026-05-04 23:10 -13.08554 -38.69299 2300 ft 219 kts 240°
2026-05-04 23:10 -13.09218 -38.70713 2303 ft 224 kts 240°
2026-05-04 23:11 -13.09900 -38.72166 2306 ft 227 kts 240°
2026-05-04 23:11 -13.10594 -38.73645 2307 ft 230 kts 240°
2026-05-04 23:11 -13.11286 -38.75123 2306 ft 232 kts 240°
2026-05-04 23:11 -13.11986 -38.76616 2309 ft 233 kts 240°
2026-05-04 23:12 -13.12693 -38.78124 2303 ft 234 kts 240°
2026-05-04 23:12 -13.13786 -38.79293 2223 ft 228 kts 204°
2026-05-04 23:12 -13.15251 -38.79959 2153 ft 229 kts 200°
2026-05-04 23:12 -13.16721 -38.80629 2084 ft 231 kts 201°
2026-05-04 23:13 -13.18181 -38.81306 2026 ft 232 kts 201°
2026-05-04 23:13 -13.19647 -38.81989 2013 ft 230 kts 201°
2026-05-04 23:13 -13.21108 -38.82673 2010 ft 229 kts 201°
2026-05-04 23:13 -13.22573 -38.83359 2009 ft 228 kts 201°
2026-05-04 23:14 -13.23789 -38.84420 2009 ft 233 kts 223°
2026-05-04 23:14 -13.24895 -38.85645 2011 ft 233 kts 223°
2026-05-04 23:14 -13.25985 -38.86858 2011 ft 232 kts 223°
2026-05-04 23:14 -13.27175 -38.87981 2011 ft 230 kts 214°
2026-05-04 23:15 -13.28478 -38.88913 2010 ft 227 kts 207°
2026-05-04 23:15 -13.29883 -38.89690 2010 ft 226 kts 202°
2026-05-04 23:15 -13.31334 -38.90281 2011 ft 224 kts 195°
2026-05-04 23:15 -13.32850 -38.90712 2010 ft 223 kts 191°
2026-05-04 23:16 -13.34352 -38.91113 1961 ft 225 kts 191°
2026-05-04 23:16 -13.35890 -38.91520 1892 ft 228 kts 191°
2026-05-04 23:16 -13.37454 -38.91856 1826 ft 226 kts 185°
2026-05-04 23:16 -13.38842 -38.92070 2202 ft 193 kts 186°
2026-05-04 23:17 -13.40170 -38.92420 2478 ft 195 kts 197°
2026-05-04 23:17 -13.41278 -38.92819 2533 ft 147 kts 192°
2026-05-04 23:17 -13.42383 -38.93130 2548 ft 168 kts 199°
2026-05-04 23:17 -13.43366 -38.93461 2763 ft 140 kts 180°
2026-05-04 23:18 -13.44454 -38.93431 2466 ft 194 kts 162°
2026-05-04 23:18 -13.45820 -38.92813 2123 ft 227 kts 153°
2026-05-04 23:18 -13.47276 -38.92191 2292 ft 232 kts 163°
2026-05-04 23:18 -13.48796 -38.91954 2746 ft 220 kts 176°
2026-05-04 23:19 -13.50379 -38.91912 2657 ft 234 kts 173°
2026-05-04 23:19 -13.52040 -38.91854 2595 ft 229 kts 178°
2026-05-04 23:19 -13.53468 -38.91866 2773 ft 192 kts 178°
2026-05-04 23:19 -13.54776 -38.91900 3001 ft 184 kts 178°
2026-05-04 23:20 -13.56050 -38.91945 3238 ft 182 kts 178°
2026-05-04 23:20 -13.57350 -38.91998 3481 ft 188 kts 178°
2026-05-04 23:20 -13.58676 -38.92058 3723 ft 193 kts 178°
2026-05-04 23:20 -13.60019 -38.92123 3961 ft 196 kts 179°
2026-05-04 23:21 -13.61408 -38.92233 4204 ft 198 kts 178°
2026-05-04 23:21 -13.62791 -38.92283 4445 ft 200 kts 178°
2026-05-04 23:21 -13.64193 -38.92342 4685 ft 201 kts 179°
2026-05-04 23:21 -13.65606 -38.92408 4924 ft 202 kts 179°
2026-05-04 23:22 -13.67016 -38.92477 5164 ft 202 kts 178°
2026-05-04 23:22 -13.68419 -38.92546 5403 ft 203 kts 178°
2026-05-04 23:22 -13.69833 -38.92617 5646 ft 203 kts 178°
2026-05-04 23:22 -13.71242 -38.92688 5887 ft 203 kts 178°
2026-05-04 23:23 -13.72672 -38.92759 6127 ft 203 kts 178°
2026-05-04 23:23 -13.74077 -38.92830 6366 ft 203 kts 178°
2026-05-04 23:23 -13.75510 -38.92902 6604 ft 203 kts 178°
2026-05-04 23:23 -13.76917 -38.92973 6840 ft 204 kts 178°
2026-05-04 23:24 -13.78335 -38.93045 7079 ft 204 kts 178°
2026-05-04 23:24 -13.79769 -38.93117 7324 ft 204 kts 178°
2026-05-04 23:24 -13.81197 -38.93189 7564 ft 205 kts 178°
2026-05-04 23:24 -13.82624 -38.93260 7801 ft 207 kts 178°
2026-05-04 23:25 -13.84090 -38.93335 8044 ft 209 kts 178°
2026-05-04 23:25 -13.85557 -38.93408 8283 ft 211 kts 178°
2026-05-04 23:25 -13.87010 -38.93482 8521 ft 211 kts 178°
2026-05-04 23:25 -13.88496 -38.93557 8756 ft 211 kts 178°
2026-05-04 23:26 -13.89970 -38.93632 8998 ft 211 kts 178°
2026-05-04 23:26 -13.91440 -38.93706 9236 ft 211 kts 178°
2026-05-04 23:26 -13.92912 -38.93780 9474 ft 211 kts 178°
2026-05-04 23:26 -13.94380 -38.93854 9711 ft 212 kts 178°
2026-05-04 23:27 -13.95859 -38.93930 9947 ft 210 kts 178°
2026-05-04 23:27 -13.97342 -38.94004 10030 ft 217 kts 178°
2026-05-04 23:27 -13.98868 -38.94081 10045 ft 224 kts 179°
2026-05-04 23:27 -14.00475 -38.94163 10051 ft 231 kts 179°
2026-05-04 23:28 -14.02097 -38.94246 10053 ft 236 kts 179°
2026-05-04 23:28 -14.03762 -38.94332 10053 ft 240 kts 179°
2026-05-04 23:28 -14.05440 -38.94418 10049 ft 242 kts 179°
2026-05-04 23:28 -14.07133 -38.94504 10047 ft 244 kts 179°
2026-05-04 23:29 -14.08841 -38.94591 10056 ft 245 kts 179°
2026-05-04 23:29 -14.10569 -38.94679 10055 ft 246 kts 179°
2026-05-04 23:29 -14.12282 -38.94766 10052 ft 247 kts 179°
2026-05-04 23:29 -14.14010 -38.94854 10050 ft 247 kts 179°
2026-05-04 23:30 -14.15717 -38.94941 10048 ft 247 kts 179°
2026-05-04 23:30 -14.17453 -38.95028 10051 ft 247 kts 179°
2026-05-04 23:30 -14.19183 -38.95116 10055 ft 247 kts 179°
2026-05-04 23:30 -14.20892 -38.95203 10055 ft 247 kts 179°
2026-05-04 23:31 -14.22633 -38.95291 10052 ft 247 kts 180°
2026-05-04 23:31 -14.24341 -38.95378 10054 ft 248 kts 180°
2026-05-04 23:31 -14.26076 -38.95466 10051 ft 248 kts 180°
2026-05-04 23:31 -14.27807 -38.95554 10053 ft 247 kts 179°
2026-05-04 23:32 -14.29537 -38.95642 10054 ft 247 kts 179°
2026-05-04 23:32 -14.31249 -38.95729 10054 ft 247 kts 179°
2026-05-04 23:32 -14.32981 -38.95816 10052 ft 247 kts 179°
2026-05-04 23:32 -14.34684 -38.95903 10057 ft 246 kts 179°
2026-05-04 23:33 -14.36412 -38.95990 10064 ft 247 kts 179°
2026-05-04 23:33 -14.38144 -38.96079 10061 ft 247 kts 179°
2026-05-04 23:33 -14.39860 -38.96166 10061 ft 246 kts 179°
2026-05-04 23:33 -14.41566 -38.96252 10060 ft 246 kts 179°
2026-05-04 23:34 -14.43288 -38.96340 10061 ft 246 kts 180°
2026-05-04 23:34 -14.45010 -38.96427 10057 ft 246 kts 180°
2026-05-04 23:34 -14.46727 -38.96514 10056 ft 246 kts 179°
2026-05-04 23:34 -14.48440 -38.96602 10060 ft 245 kts 179°
2026-05-04 23:35 -14.50141 -38.96688 10063 ft 246 kts 179°
2026-05-04 23:35 -14.51858 -38.96775 10065 ft 245 kts 179°
2026-05-04 23:35 -14.53581 -38.96864 10067 ft 245 kts 179°
2026-05-04 23:35 -14.55269 -38.96949 10073 ft 245 kts 179°
2026-05-04 23:36 -14.56975 -38.97036 10074 ft 245 kts 180°
2026-05-04 23:36 -14.58701 -38.97124 10077 ft 244 kts 179°
2026-05-04 23:36 -14.60398 -38.97210 10076 ft 244 kts 180°
2026-05-04 23:36 -14.62111 -38.97297 10079 ft 244 kts 179°
2026-05-04 23:37 -14.63823 -38.97384 10076 ft 244 kts 179°
2026-05-04 23:37 -14.65510 -38.97470 10072 ft 245 kts 179°
2026-05-04 23:37 -14.67215 -38.97557 10074 ft 245 kts 179°
2026-05-04 23:37 -14.68939 -38.97645 10074 ft 245 kts 179°
2026-05-04 23:38 -14.70641 -38.97731 10076 ft 244 kts 180°
2026-05-04 23:38 -14.72337 -38.97818 10076 ft 244 kts 180°
2026-05-04 23:38 -14.74033 -38.97905 10078 ft 244 kts 180°
2026-05-04 23:38 -14.75757 -38.97992 10080 ft 244 kts 179°
2026-05-04 23:39 -14.77452 -38.98079 10084 ft 244 kts 179°
2026-05-04 23:39 -14.79143 -38.98165 10080 ft 243 kts 180°
2026-05-04 23:39 -14.80851 -38.98252 10080 ft 243 kts 179°
2026-05-04 23:39 -14.82529 -38.98338 10085 ft 243 kts 179°
2026-05-04 23:40 -14.84222 -38.98424 10088 ft 243 kts 180°
2026-05-04 23:40 -14.85919 -38.98510 10086 ft 243 kts 180°
2026-05-04 23:40 -14.87619 -38.98597 10076 ft 243 kts 180°
2026-05-04 23:40 -14.89308 -38.98683 10075 ft 242 kts 180°
2026-05-04 23:41 -14.90991 -38.98769 10075 ft 241 kts 180°
2026-05-04 23:41 -14.92673 -38.98854 10076 ft 241 kts 180°
2026-05-04 23:41 -14.94369 -38.98941 10088 ft 241 kts 180°
2026-05-04 23:41 -14.96047 -38.99027 10091 ft 241 kts 180°
2026-05-04 23:42 -14.97720 -38.99112 10092 ft 241 kts 180°
2026-05-04 23:42 -14.99424 -38.99199 10098 ft 242 kts 180°
2026-05-04 23:42 -15.01093 -38.99285 10100 ft 242 kts 180°
2026-05-04 23:42 -15.02788 -38.99371 10106 ft 243 kts 180°
2026-05-04 23:43 -15.04494 -38.99459 10099 ft 244 kts 180°
2026-05-04 23:43 -15.06204 -38.99546 10096 ft 244 kts 180°
2026-05-04 23:43 -15.07904 -38.99633 10091 ft 244 kts 180°
2026-05-04 23:43 -15.09604 -38.99720 10094 ft 243 kts 180°
2026-05-04 23:44 -15.11288 -38.99806 10086 ft 243 kts 180°
2026-05-04 23:44 -15.12996 -38.99893 10103 ft 243 kts 180°
2026-05-04 23:44 -15.14681 -38.99979 10098 ft 243 kts 180°
2026-05-04 23:44 -15.16387 -39.00067 10097 ft 242 kts 180°
2026-05-04 23:45 -15.18057 -39.00153 10086 ft 240 kts 180°
2026-05-04 23:45 -15.19732 -39.00238 10087 ft 240 kts 180°
2026-05-04 23:45 -15.21406 -39.00323 10094 ft 240 kts 180°
2026-05-04 23:45 -15.23083 -39.00410 10091 ft 239 kts 180°
2026-05-04 23:46 -15.24749 -39.00495 10092 ft 239 kts 180°
2026-05-04 23:46 -15.26409 -39.00580 10091 ft 239 kts 179°
2026-05-04 23:46 -15.28079 -39.00665 10091 ft 238 kts 180°
2026-05-04 23:46 -15.29736 -39.00750 10086 ft 238 kts 180°
2026-05-04 23:47 -15.31404 -39.00835 10090 ft 238 kts 180°
2026-05-04 23:47 -15.33065 -39.00921 10091 ft 238 kts 180°
2026-05-04 23:47 -15.34716 -39.01005 10092 ft 238 kts 180°
2026-05-04 23:47 -15.36393 -39.01091 10091 ft 238 kts 179°
2026-05-04 23:48 -15.38050 -39.01176 10092 ft 238 kts 180°
2026-05-04 23:48 -15.39698 -39.01260 10092 ft 238 kts 180°
2026-05-04 23:48 -15.41365 -39.01346 10090 ft 238 kts 179°
2026-05-04 23:48 -15.43034 -39.01431 10092 ft 238 kts 180°
2026-05-04 23:49 -15.44681 -39.01516 10090 ft 238 kts 180°
2026-05-04 23:49 -15.46351 -39.01601 10091 ft 238 kts 179°
2026-05-04 23:49 -15.48000 -39.01686 10095 ft 238 kts 180°
2026-05-04 23:49 -15.49664 -39.01771 10093 ft 238 kts 180°
2026-05-04 23:50 -15.51329 -39.01857 10090 ft 238 kts 180°
2026-05-04 23:50 -15.52999 -39.01943 10091 ft 238 kts 179°
2026-05-04 23:50 -15.54641 -39.02027 10091 ft 237 kts 179°
2026-05-04 23:50 -15.56315 -39.02113 10093 ft 237 kts 179°
2026-05-04 23:51 -15.57965 -39.02198 10093 ft 237 kts 179°
2026-05-04 23:51 -15.59614 -39.02283 10091 ft 237 kts 179°
2026-05-04 23:51 -15.61270 -39.02367 10092 ft 237 kts 179°
2026-05-04 23:51 -15.62926 -39.02452 10095 ft 237 kts 179°
2026-05-04 23:52 -15.64581 -39.02537 10094 ft 237 kts 180°
2026-05-04 23:52 -15.66243 -39.02623 10093 ft 237 kts 179°
2026-05-04 23:52 -15.67888 -39.02707 10095 ft 237 kts 179°
2026-05-04 23:52 -15.69543 -39.02793 10094 ft 237 kts 180°
2026-05-04 23:53 -15.71207 -39.02879 10091 ft 237 kts 179°
2026-05-04 23:53 -15.72858 -39.02963 10093 ft 237 kts 179°
2026-05-04 23:53 -15.74498 -39.03048 10094 ft 237 kts 179°
2026-05-04 23:53 -15.76151 -39.03132 10098 ft 237 kts 179°
2026-05-04 23:54 -15.77807 -39.03217 10092 ft 237 kts 179°
2026-05-04 23:54 -15.79458 -39.03303 10093 ft 237 kts 179°
2026-05-04 23:54 -15.81111 -39.03388 10098 ft 237 kts 179°
2026-05-04 23:54 -15.82778 -39.03474 10097 ft 237 kts 179°
2026-05-04 23:55 -15.84426 -39.03558 10091 ft 237 kts 179°
2026-05-04 23:55 -15.86087 -39.03644 10094 ft 237 kts 180°
2026-05-04 23:55 -15.89368 -39.03813 10094 ft 236 kts 179°
2026-05-04 23:56 -15.91028 -39.03898 10092 ft 236 kts 179°
2026-05-04 23:56 -15.92679 -39.03984 10090 ft 236 kts 179°
2026-05-04 23:56 -15.94336 -39.04069 10096 ft 236 kts 179°
2026-05-04 23:56 -15.95969 -39.04153 10096 ft 237 kts 179°
2026-05-04 23:57 -15.97618 -39.04238 10097 ft 237 kts 179°
2026-05-04 23:57 -15.99277 -39.04324 10098 ft 237 kts 179°
2026-05-04 23:57 -16.00934 -39.04409 10092 ft 237 kts 179°
2026-05-04 23:57 -16.02590 -39.04494 10092 ft 237 kts 179°
2026-05-04 23:58 -16.04236 -39.04579 10094 ft 236 kts 179°
2026-05-04 23:58 -16.05875 -39.04664 10095 ft 236 kts 180°
2026-05-04 23:58 -16.07535 -39.04750 10096 ft 236 kts 179°
2026-05-04 23:58 -16.09171 -39.04834 10094 ft 236 kts 179°
2026-05-04 23:59 -16.10817 -39.04919 10092 ft 236 kts 179°
2026-05-04 23:59 -16.12475 -39.05005 10095 ft 236 kts 179°
2026-05-04 23:59 -16.14131 -39.05091 10095 ft 236 kts 179°
2026-05-04 23:59 -16.15778 -39.05175 10096 ft 236 kts 179°
2026-05-05 00:00 -16.17415 -39.05260 10097 ft 237 kts 179°
2026-05-05 00:00 -16.17963 -39.05288 10096 ft 237 kts 179°
2026-05-05 00:00 -16.20733 -39.05431 10096 ft 237 kts 179°
2026-05-05 00:00 -16.22374 -39.05516 10095 ft 237 kts 179°
2026-05-05 00:01 -16.24031 -39.05602 10094 ft 237 kts 179°
2026-05-05 00:01 -16.25688 -39.05688 10095 ft 237 kts 179°
2026-05-05 00:01 -16.27338 -39.05773 10097 ft 236 kts 179°
2026-05-05 00:01 -16.28982 -39.05858 10099 ft 237 kts 179°
2026-05-05 00:02 -16.30629 -39.05943 10099 ft 237 kts 179°
2026-05-05 00:02 -16.32290 -39.06029 10098 ft 237 kts 179°
2026-05-05 00:02 -16.33944 -39.06115 10097 ft 237 kts 179°
2026-05-05 00:02 -16.35589 -39.06200 10097 ft 237 kts 179°
2026-05-05 00:03 -16.37226 -39.06284 10098 ft 237 kts 179°
2026-05-05 00:03 -16.38889 -39.06370 10098 ft 237 kts 179°
2026-05-05 00:03 -16.40548 -39.06456 10097 ft 237 kts 179°
2026-05-05 00:03 -16.42184 -39.06541 10096 ft 237 kts 179°
2026-05-05 00:04 -16.43856 -39.06628 10096 ft 237 kts 179°
2026-05-05 00:04 -16.45490 -39.06712 10097 ft 237 kts 179°
2026-05-05 00:04 -16.47154 -39.06799 10098 ft 237 kts 179°
2026-05-05 00:04 -16.48815 -39.06885 10100 ft 237 kts 179°
2026-05-05 00:05 -16.50447 -39.07145 10100 ft 239 kts 187°
2026-05-05 00:05 -16.52100 -39.07467 10097 ft 239 kts 187°
2026-05-05 00:05 -16.53731 -39.07780 10093 ft 239 kts 187°
2026-05-05 00:05 -16.55374 -39.08096 10096 ft 239 kts 186°
2026-05-05 00:06 -16.57020 -39.08410 10095 ft 238 kts 186°
2026-05-05 00:06 -16.58641 -39.08720 10095 ft 238 kts 186°
2026-05-05 00:06 -16.60296 -39.09035 10096 ft 238 kts 187°
2026-05-05 00:06 -16.61925 -39.09346 10097 ft 238 kts 187°
2026-05-05 00:07 -16.63561 -39.09659 10098 ft 239 kts 186°
2026-05-05 00:07 -16.65206 -39.09973 10098 ft 239 kts 186°
2026-05-05 00:07 -16.66839 -39.10285 10098 ft 239 kts 187°
2026-05-05 00:07 -16.68494 -39.10601 10099 ft 239 kts 186°
2026-05-05 00:08 -16.70129 -39.10913 10096 ft 239 kts 186°
2026-05-05 00:08 -16.71767 -39.11226 10096 ft 239 kts 187°
2026-05-05 00:08 -16.73412 -39.11596 10093 ft 241 kts 192°
2026-05-05 00:08 -16.75026 -39.12089 10091 ft 240 kts 192°
2026-05-05 00:09 -16.76641 -39.12581 10096 ft 240 kts 192°
2026-05-05 00:09 -16.78235 -39.13065 10098 ft 240 kts 192°
2026-05-05 00:09 -16.79866 -39.13559 10102 ft 240 kts 192°
2026-05-05 00:09 -16.81472 -39.14045 10103 ft 241 kts 192°
2026-05-05 00:10 -16.83092 -39.14535 10100 ft 241 kts 192°
2026-05-05 00:10 -16.84692 -39.15020 10099 ft 241 kts 192°
2026-05-05 00:10 -16.86310 -39.15509 10102 ft 241 kts 192°
2026-05-05 00:10 -16.87925 -39.15998 10105 ft 242 kts 192°
2026-05-05 00:11 -16.89546 -39.16489 10103 ft 242 kts 192°
2026-05-05 00:11 -16.91171 -39.16981 10098 ft 242 kts 192°
2026-05-05 00:11 -16.92789 -39.17472 10099 ft 242 kts 193°
2026-05-05 00:11 -16.94408 -39.17963 10102 ft 242 kts 192°
2026-05-05 00:12 -16.96043 -39.18459 10105 ft 242 kts 192°
2026-05-05 00:12 -16.97658 -39.18948 10105 ft 242 kts 192°
2026-05-05 00:12 -16.99285 -39.19441 10105 ft 242 kts 192°
2026-05-05 00:12 -17.00910 -39.19934 10105 ft 242 kts 192°
2026-05-05 00:13 -17.02511 -39.20420 10106 ft 242 kts 192°
2026-05-05 00:13 -17.04151 -39.20918 10105 ft 242 kts 192°
2026-05-05 00:13 -17.05758 -39.21405 10105 ft 242 kts 192°
2026-05-05 00:13 -17.07375 -39.21895 10102 ft 242 kts 192°
2026-05-05 00:14 -17.09010 -39.22391 10107 ft 242 kts 192°
2026-05-05 00:14 -17.10617 -39.22879 10110 ft 242 kts 193°
2026-05-05 00:14 -17.12247 -39.23374 10110 ft 242 kts 192°
2026-05-05 00:14 -17.13884 -39.23871 10112 ft 243 kts 192°
2026-05-05 00:15 -17.15516 -39.24367 10117 ft 243 kts 193°
2026-05-05 00:15 -17.17130 -39.24857 10120 ft 243 kts 193°
2026-05-05 00:15 -17.18762 -39.25354 10114 ft 244 kts 193°
2026-05-05 00:15 -17.20413 -39.25855 10117 ft 244 kts 192°
2026-05-05 00:16 -17.22040 -39.26350 10118 ft 244 kts 192°
2026-05-05 00:16 -17.23660 -39.26843 10118 ft 244 kts 192°
2026-05-05 00:16 -17.25315 -39.27346 10112 ft 244 kts 192°
2026-05-05 00:16 -17.26936 -39.27839 10114 ft 244 kts 192°
2026-05-05 00:17 -17.28567 -39.28334 10113 ft 244 kts 192°
2026-05-05 00:17 -17.30208 -39.28834 10111 ft 244 kts 192°
2026-05-05 00:17 -17.31834 -39.29329 10114 ft 244 kts 192°
2026-05-05 00:17 -17.33481 -39.29830 10115 ft 244 kts 192°
2026-05-05 00:18 -17.35118 -39.30328 10117 ft 244 kts 193°
2026-05-05 00:18 -17.36742 -39.30822 10118 ft 244 kts 193°
2026-05-05 00:18 -17.38393 -39.31326 10116 ft 244 kts 193°
2026-05-05 00:18 -17.40021 -39.31821 10114 ft 245 kts 193°
2026-05-05 00:19 -17.41670 -39.32324 10114 ft 245 kts 192°
2026-05-05 00:19 -17.43310 -39.32824 10117 ft 245 kts 193°
2026-05-05 00:19 -17.44954 -39.33324 10143 ft 244 kts 193°
2026-05-05 00:19 -17.46561 -39.33814 10189 ft 242 kts 192°
2026-05-05 00:20 -17.48188 -39.34310 10241 ft 241 kts 192°
2026-05-05 00:20 -17.49807 -39.34803 10293 ft 240 kts 192°
2026-05-05 00:20 -17.51420 -39.35295 10343 ft 240 kts 193°
2026-05-05 00:20 -17.53030 -39.35786 10396 ft 240 kts 193°
2026-05-05 00:21 -17.54617 -39.36270 10446 ft 239 kts 193°
2026-05-05 00:21 -17.56232 -39.36763 10495 ft 239 kts 193°
2026-05-05 00:21 -17.57829 -39.37251 10540 ft 239 kts 193°
2026-05-05 00:21 -17.59444 -39.37744 10591 ft 239 kts 193°
2026-05-05 00:22 -17.61049 -39.38234 10621 ft 240 kts 193°
2026-05-05 00:22 -17.62666 -39.38728 10630 ft 242 kts 193°
2026-05-05 00:22 -17.64293 -39.39225 10630 ft 244 kts 193°
2026-05-05 00:22 -17.65934 -39.39726 10629 ft 245 kts 193°
2026-05-05 00:23 -17.67575 -39.40228 10628 ft 245 kts 193°
2026-05-05 00:23 -17.69231 -39.40734 10627 ft 246 kts 193°
2026-05-05 00:23 -17.70880 -39.41238 10628 ft 246 kts 193°
2026-05-05 00:23 -17.72530 -39.41743 10631 ft 247 kts 193°
2026-05-05 00:24 -17.74172 -39.42245 10629 ft 247 kts 193°
2026-05-05 00:24 -17.75840 -39.42755 10625 ft 247 kts 193°
2026-05-05 00:24 -17.77503 -39.43264 10626 ft 247 kts 193°
2026-05-05 00:24 -17.79144 -39.43766 10632 ft 248 kts 193°
2026-05-05 00:25 -17.80818 -39.44278 10636 ft 248 kts 193°
2026-05-05 00:25 -17.82482 -39.44788 10629 ft 248 kts 193°
2026-05-05 00:25 -17.84135 -39.45293 10626 ft 248 kts 193°
2026-05-05 00:25 -17.85793 -39.45801 10627 ft 248 kts 193°
2026-05-05 00:26 -17.87471 -39.46316 10628 ft 248 kts 193°
2026-05-05 00:26 -17.89131 -39.46824 10626 ft 248 kts 193°
2026-05-05 00:26 -17.90783 -39.47331 10630 ft 248 kts 193°
2026-05-05 00:26 -17.92447 -39.47840 10632 ft 248 kts 193°
2026-05-05 00:27 -17.94115 -39.48351 10631 ft 248 kts 193°
2026-05-05 00:27 -17.95783 -39.48862 10630 ft 248 kts 193°
2026-05-05 00:27 -17.97432 -39.49368 10635 ft 248 kts 193°
2026-05-05 00:27 -17.99096 -39.49879 10634 ft 248 kts 193°
2026-05-05 00:28 -18.00767 -39.50391 10634 ft 248 kts 194°
2026-05-05 00:28 -18.02444 -39.50906 10632 ft 248 kts 194°
2026-05-05 00:28 -18.04104 -39.51415 10634 ft 248 kts 193°
2026-05-05 00:28 -18.05774 -39.51928 10633 ft 248 kts 194°
2026-05-05 00:29 -18.07432 -39.52437 10637 ft 248 kts 193°
2026-05-05 00:29 -18.09084 -39.52944 10636 ft 248 kts 194°
2026-05-05 00:29 -18.10763 -39.53460 10633 ft 248 kts 193°
2026-05-05 00:29 -18.12429 -39.53972 10633 ft 248 kts 194°
2026-05-05 00:30 -18.14089 -39.54481 10639 ft 248 kts 194°
2026-05-05 00:30 -18.15769 -39.54998 10640 ft 248 kts 193°
2026-05-05 00:30 -18.17421 -39.55505 10644 ft 248 kts 194°
2026-05-05 00:30 -18.19095 -39.56020 10642 ft 248 kts 194°
2026-05-05 00:31 -18.20752 -39.56530 10645 ft 249 kts 194°
2026-05-05 00:31 -18.22417 -39.57041 10646 ft 249 kts 194°
2026-05-05 00:31 -18.24086 -39.57555 10644 ft 249 kts 194°
2026-05-05 00:31 -18.25751 -39.58067 10645 ft 248 kts 194°
2026-05-05 00:32 -18.27411 -39.58579 10644 ft 249 kts 194°
2026-05-05 00:32 -18.29072 -39.59089 10646 ft 249 kts 194°
2026-05-05 00:32 -18.30755 -39.59607 10643 ft 249 kts 194°
2026-05-05 00:32 -18.32417 -39.60119 10649 ft 249 kts 194°
2026-05-05 00:33 -18.34086 -39.60633 10650 ft 249 kts 194°
2026-05-05 00:33 -18.35739 -39.61142 10651 ft 249 kts 194°
2026-05-05 00:33 -18.37402 -39.61655 10651 ft 249 kts 194°
2026-05-05 00:33 -18.39084 -39.62174 10649 ft 249 kts 194°
2026-05-05 00:34 -18.40744 -39.62685 10652 ft 249 kts 194°
2026-05-05 00:34 -18.42418 -39.63201 10653 ft 249 kts 194°
2026-05-05 00:34 -18.44074 -39.63712 10654 ft 249 kts 194°
2026-05-05 00:34 -18.45757 -39.64231 10651 ft 249 kts 194°
2026-05-05 00:35 -18.47408 -39.64740 10650 ft 249 kts 194°
2026-05-05 00:35 -18.49082 -39.65256 10654 ft 249 kts 194°
2026-05-05 00:35 -18.50740 -39.65768 10657 ft 249 kts 194°
2026-05-05 00:35 -18.52408 -39.66283 10655 ft 249 kts 194°
2026-05-05 00:36 -18.54073 -39.66797 10656 ft 248 kts 194°
2026-05-05 00:36 -18.55741 -39.67312 10655 ft 248 kts 194°
2026-05-05 00:36 -18.57400 -39.67825 10654 ft 248 kts 194°
2026-05-05 00:36 -18.59063 -39.68338 10656 ft 248 kts 194°
2026-05-05 00:37 -18.60726 -39.68852 10657 ft 248 kts 195°
2026-05-05 00:37 -18.62385 -39.69364 10658 ft 248 kts 195°
2026-05-05 00:37 -18.64057 -39.69881 10657 ft 248 kts 195°
2026-05-05 00:37 -18.65704 -39.70391 10658 ft 248 kts 194°
2026-05-05 00:38 -18.67366 -39.70904 10659 ft 248 kts 195°
2026-05-05 00:38 -18.69037 -39.71421 10656 ft 248 kts 195°
2026-05-05 00:38 -18.70699 -39.71936 10659 ft 248 kts 194°
2026-05-05 00:38 -18.72346 -39.72445 10661 ft 248 kts 195°
2026-05-05 00:39 -18.74015 -39.72962 10661 ft 248 kts 195°
2026-05-05 00:39 -18.75683 -39.73478 10660 ft 248 kts 195°
2026-05-05 00:39 -18.77323 -39.73986 10661 ft 248 kts 195°
2026-05-05 00:39 -18.78993 -39.74503 10661 ft 247 kts 194°
2026-05-05 00:40 -18.80661 -39.75019 10662 ft 248 kts 194°
2026-05-05 00:40 -18.82306 -39.75529 10663 ft 248 kts 194°
2026-05-05 00:40 -18.83957 -39.76041 10665 ft 248 kts 194°
2026-05-05 00:40 -18.85619 -39.76555 10665 ft 248 kts 195°
2026-05-05 00:41 -18.87277 -39.77070 10667 ft 248 kts 195°
2026-05-05 00:41 -18.88939 -39.77585 10669 ft 248 kts 195°
2026-05-05 00:41 -18.90615 -39.78105 10668 ft 248 kts 195°
2026-05-05 00:41 -18.92256 -39.78614 10669 ft 248 kts 195°
2026-05-05 00:42 -18.93915 -39.79128 10670 ft 248 kts 195°
2026-05-05 00:42 -18.95579 -39.79645 10670 ft 248 kts 195°
2026-05-05 00:42 -18.97250 -39.80164 10671 ft 248 kts 195°
2026-05-05 00:42 -18.98908 -39.80679 10670 ft 248 kts 195°
2026-05-05 00:43 -19.00566 -39.81193 10669 ft 248 kts 195°
2026-05-05 00:43 -19.02221 -39.81707 10670 ft 248 kts 195°
2026-05-05 00:43 -19.03877 -39.82222 10670 ft 248 kts 195°
2026-05-05 00:43 -19.05532 -39.82735 10670 ft 248 kts 195°
2026-05-05 00:44 -19.07213 -39.83258 10673 ft 248 kts 195°
2026-05-05 00:44 -19.08861 -39.83770 10670 ft 248 kts 195°
2026-05-05 00:44 -19.10521 -39.84286 10668 ft 248 kts 195°
2026-05-05 00:44 -19.12194 -39.84806 10669 ft 248 kts 195°
2026-05-05 00:45 -19.13853 -39.85323 10669 ft 248 kts 195°
2026-05-05 00:45 -19.15510 -39.85838 10670 ft 247 kts 195°
2026-05-05 00:45 -19.17162 -39.86352 10671 ft 247 kts 195°
2026-05-05 00:45 -19.18802 -39.86863 10672 ft 247 kts 195°
2026-05-05 00:46 -19.20471 -39.87382 10674 ft 247 kts 195°
2026-05-05 00:46 -19.22129 -39.87898 10675 ft 248 kts 195°
2026-05-05 00:46 -19.23796 -39.88417 10675 ft 248 kts 195°
2026-05-05 00:46 -19.25454 -39.88934 10677 ft 248 kts 195°
2026-05-05 00:47 -19.27114 -39.89451 10674 ft 248 kts 195°
2026-05-05 00:47 -19.28767 -39.89966 10674 ft 248 kts 195°
2026-05-05 00:47 -19.30423 -39.90482 10674 ft 248 kts 195°
2026-05-05 00:47 -19.32089 -39.91002 10676 ft 248 kts 196°
2026-05-05 00:48 -19.33728 -39.91513 10678 ft 247 kts 196°
2026-05-05 00:48 -19.35401 -39.92034 10679 ft 247 kts 196°
2026-05-05 00:48 -19.37042 -39.92546 10679 ft 247 kts 195°
2026-05-05 00:48 -19.38708 -39.93066 10680 ft 247 kts 196°
2026-05-05 00:49 -19.40370 -39.93584 10680 ft 247 kts 196°
2026-05-05 00:49 -19.42024 -39.94101 10683 ft 247 kts 196°
2026-05-05 00:49 -19.43663 -39.94613 10684 ft 247 kts 196°
2026-05-05 00:49 -19.45334 -39.95134 10685 ft 247 kts 196°
2026-05-05 00:50 -19.46979 -39.95649 10685 ft 247 kts 196°
2026-05-05 00:50 -19.48643 -39.96168 10688 ft 247 kts 196°
2026-05-05 00:50 -19.50289 -39.96683 10686 ft 247 kts 196°
2026-05-05 00:50 -19.51959 -39.97205 10687 ft 247 kts 196°
2026-05-05 00:51 -19.53612 -39.97722 10686 ft 247 kts 196°
2026-05-05 00:51 -19.55275 -39.98241 10686 ft 247 kts 196°
2026-05-05 00:51 -19.56915 -39.98754 10685 ft 247 kts 196°
2026-05-05 00:51 -19.58566 -39.99271 10687 ft 247 kts 196°
2026-05-05 00:52 -19.60218 -39.99788 10685 ft 247 kts 196°
2026-05-05 00:52 -19.61876 -40.00306 10682 ft 247 kts 196°
2026-05-05 00:52 -19.63530 -40.00824 10686 ft 247 kts 196°
2026-05-05 00:52 -19.65182 -40.01341 10686 ft 247 kts 196°
2026-05-05 00:53 -19.66832 -40.01858 10689 ft 247 kts 196°
2026-05-05 00:53 -19.68491 -40.02378 10687 ft 247 kts 196°
2026-05-05 00:53 -19.70140 -40.02895 10688 ft 247 kts 196°
2026-05-05 00:53 -19.71792 -40.03412 10688 ft 247 kts 196°
2026-05-05 00:54 -19.73452 -40.03933 10689 ft 247 kts 196°
2026-05-05 00:54 -19.75111 -40.04453 10689 ft 247 kts 196°
2026-05-05 00:54 -19.76747 -40.04965 10691 ft 246 kts 196°
2026-05-05 00:54 -19.78398 -40.05483 10690 ft 246 kts 196°
2026-05-05 00:55 -19.80050 -40.06000 10694 ft 246 kts 197°
2026-05-05 00:55 -19.81698 -40.06518 10697 ft 246 kts 197°
2026-05-05 00:55 -19.83328 -40.07029 10696 ft 246 kts 197°
2026-05-05 00:55 -19.84969 -40.07544 10700 ft 246 kts 197°
2026-05-05 00:56 -19.86632 -40.08067 10703 ft 246 kts 197°
2026-05-05 00:56 -19.88191 -40.08746 10701 ft 245 kts 211°
2026-05-05 00:56 -19.89681 -40.09677 10697 ft 246 kts 211°
2026-05-05 00:56 -19.91147 -40.10589 10699 ft 245 kts 211°
2026-05-05 00:57 -19.92635 -40.11512 10701 ft 246 kts 211°
2026-05-05 00:57 -19.94109 -40.12425 10695 ft 246 kts 211°
2026-05-05 00:57 -19.95597 -40.13346 10703 ft 245 kts 211°
2026-05-05 00:57 -19.97079 -40.14264 10705 ft 246 kts 211°
2026-05-05 00:58 -19.98545 -40.15172 10706 ft 246 kts 211°
2026-05-05 00:58 -20.00031 -40.16092 10707 ft 246 kts 211°
2026-05-05 00:58 -20.01513 -40.17010 10702 ft 246 kts 211°
2026-05-05 00:58 -20.02986 -40.17923 10699 ft 246 kts 211°
2026-05-05 00:59 -20.04480 -40.18848 10698 ft 245 kts 210°
2026-05-05 00:59 -20.06115 -40.19240 10695 ft 246 kts 180°
2026-05-05 00:59 -20.07834 -40.19236 10706 ft 246 kts 180°
2026-05-05 00:59 -20.09567 -40.19247 10697 ft 246 kts 181°
2026-05-05 01:00 -20.11267 -40.19264 10692 ft 246 kts 181°
2026-05-05 01:00 -20.12995 -40.19284 10702 ft 245 kts 181°
2026-05-05 01:00 -20.14698 -40.19305 10701 ft 246 kts 181°
2026-05-05 01:00 -20.16413 -40.19328 10696 ft 246 kts 181°
2026-05-05 01:01 -20.18142 -40.19351 10698 ft 246 kts 181°
2026-05-05 01:01 -20.19822 -40.19570 10699 ft 245 kts 204°
2026-05-05 01:01 -20.21224 -40.20589 10697 ft 244 kts 218°
2026-05-05 01:01 -20.22580 -40.21676 10696 ft 243 kts 218°
2026-05-05 01:02 -20.23937 -40.22760 10694 ft 243 kts 218°
2026-05-05 01:02 -20.25289 -40.23838 10693 ft 243 kts 218°
2026-05-05 01:02 -20.26662 -40.24932 10694 ft 243 kts 218°
2026-05-05 01:02 -20.28017 -40.26012 10695 ft 243 kts 218°
2026-05-05 01:03 -20.29357 -40.27079 10697 ft 243 kts 218°
2026-05-05 01:03 -20.30724 -40.28169 10699 ft 243 kts 218°
2026-05-05 01:03 -20.32077 -40.29246 10700 ft 243 kts 218°
2026-05-05 01:03 -20.33430 -40.30325 10697 ft 243 kts 217°
2026-05-05 01:04 -20.34789 -40.31409 10702 ft 243 kts 217°
2026-05-05 01:04 -20.37510 -40.33579 10708 ft 243 kts 217°
2026-05-05 01:04 -20.38858 -40.34654 10702 ft 243 kts 218°
2026-05-05 01:05 -20.40215 -40.35737 10709 ft 243 kts 218°
2026-05-05 01:05 -20.41581 -40.36828 10709 ft 243 kts 218°
2026-05-05 01:05 -20.42937 -40.37910 10708 ft 242 kts 218°
2026-05-05 01:05 -20.44290 -40.38991 10713 ft 242 kts 218°
2026-05-05 01:06 -20.45627 -40.40059 10714 ft 242 kts 217°
2026-05-05 01:06 -20.46984 -40.41143 10705 ft 242 kts 218°
2026-05-05 01:06 -20.48332 -40.42220 10711 ft 242 kts 217°
2026-05-05 01:06 -20.49671 -40.43289 10714 ft 241 kts 218°
2026-05-05 01:07 -20.51017 -40.44366 10724 ft 242 kts 218°
2026-05-05 01:07 -20.52378 -40.45454 10720 ft 242 kts 218°
2026-05-05 01:07 -20.53730 -40.46535 10718 ft 242 kts 218°
2026-05-05 01:07 -20.55070 -40.47607 10721 ft 243 kts 218°
2026-05-05 01:08 -20.56430 -40.48696 10721 ft 242 kts 218°
2026-05-05 01:08 -20.57773 -40.49771 10717 ft 242 kts 218°
2026-05-05 01:08 -20.59135 -40.50862 10720 ft 242 kts 218°
2026-05-05 01:08 -20.60483 -40.51941 10729 ft 242 kts 218°
2026-05-05 01:09 -20.61828 -40.53019 10732 ft 242 kts 218°
2026-05-05 01:09 -20.63162 -40.54086 10731 ft 242 kts 218°
2026-05-05 01:09 -20.64513 -40.55170 10730 ft 242 kts 218°
2026-05-05 01:09 -20.65857 -40.56246 10734 ft 242 kts 218°
2026-05-05 01:10 -20.67206 -40.57327 10740 ft 242 kts 218°
2026-05-05 01:10 -20.68565 -40.58417 10736 ft 242 kts 218°
2026-05-05 01:10 -20.69902 -40.59490 10737 ft 242 kts 218°
2026-05-05 01:10 -20.71256 -40.60576 10737 ft 242 kts 218°
2026-05-05 01:11 -20.72612 -40.61664 10741 ft 242 kts 218°
2026-05-05 01:11 -20.73961 -40.62747 10741 ft 241 kts 218°
2026-05-05 01:11 -20.75297 -40.63820 10741 ft 241 kts 218°
2026-05-05 01:11 -20.76634 -40.64892 10741 ft 241 kts 218°
2026-05-05 01:12 -20.77988 -40.65980 10746 ft 241 kts 218°
2026-05-05 01:12 -20.79332 -40.67060 10749 ft 241 kts 218°
2026-05-05 01:12 -20.80661 -40.68128 10745 ft 241 kts 218°
2026-05-05 01:12 -20.82003 -40.69206 10744 ft 241 kts 218°
2026-05-05 01:13 -20.83353 -40.70291 10742 ft 241 kts 218°
2026-05-05 01:13 -20.84684 -40.71361 10745 ft 241 kts 218°
2026-05-05 01:13 -20.86040 -40.72452 10743 ft 241 kts 218°
2026-05-05 01:13 -20.87375 -40.73526 10741 ft 241 kts 218°
2026-05-05 01:14 -20.88731 -40.74616 10738 ft 241 kts 218°
2026-05-05 01:14 -20.90066 -40.75691 10739 ft 241 kts 218°
2026-05-05 01:14 -20.91403 -40.76767 10733 ft 241 kts 218°
2026-05-05 01:14 -20.92747 -40.77849 10737 ft 241 kts 218°
2026-05-05 01:15 -20.94095 -40.78935 10738 ft 241 kts 218°
2026-05-05 01:15 -20.95434 -40.80014 10742 ft 241 kts 218°
2026-05-05 01:15 -20.96769 -40.81089 10736 ft 241 kts 218°
2026-05-05 01:15 -20.98122 -40.82180 10734 ft 240 kts 218°
2026-05-05 01:16 -20.99458 -40.83256 10734 ft 240 kts 218°
2026-05-05 01:16 -21.00798 -40.84337 10733 ft 240 kts 218°
2026-05-05 01:16 -21.02121 -40.85403 10734 ft 240 kts 218°
2026-05-05 01:16 -21.03466 -40.86488 10736 ft 240 kts 218°
2026-05-05 01:17 -21.04804 -40.87567 10735 ft 240 kts 218°
2026-05-05 01:17 -21.06139 -40.88644 10736 ft 240 kts 218°
2026-05-05 01:17 -21.07481 -40.89728 10734 ft 241 kts 218°
2026-05-05 01:17 -21.08805 -40.90797 10736 ft 241 kts 218°
2026-05-05 01:18 -21.10142 -40.91877 10736 ft 240 kts 218°
2026-05-05 01:18 -21.11495 -40.92970 10736 ft 240 kts 218°
2026-05-05 01:18 -21.12820 -40.94041 10736 ft 240 kts 218°
2026-05-05 01:18 -21.14160 -40.95123 10735 ft 240 kts 218°
2026-05-05 01:19 -21.15502 -40.96207 10734 ft 240 kts 218°
2026-05-05 01:19 -21.16822 -40.97275 10736 ft 240 kts 218°
2026-05-05 01:19 -21.18168 -40.98363 10735 ft 240 kts 218°
2026-05-05 01:19 -21.19496 -40.99437 10735 ft 240 kts 218°
2026-05-05 01:20 -21.20836 -41.00521 10737 ft 240 kts 218°
2026-05-05 01:20 -21.22162 -41.01595 10738 ft 240 kts 218°
2026-05-05 01:20 -21.23497 -41.02675 10736 ft 241 kts 218°
2026-05-05 01:20 -21.24837 -41.03760 10734 ft 240 kts 218°
2026-05-05 01:21 -21.26179 -41.04847 10735 ft 240 kts 218°
2026-05-05 01:21 -21.27512 -41.05927 10736 ft 240 kts 218°
2026-05-05 01:21 -21.28846 -41.07008 10739 ft 240 kts 218°
2026-05-05 01:21 -21.30175 -41.08084 10739 ft 239 kts 218°
2026-05-05 01:22 -21.31499 -41.09157 10740 ft 239 kts 218°
2026-05-05 01:22 -21.32846 -41.10249 10740 ft 239 kts 218°
2026-05-05 01:22 -21.34166 -41.11320 10741 ft 239 kts 218°
2026-05-05 01:22 -21.35499 -41.12401 10741 ft 239 kts 218°
2026-05-05 01:23 -21.36835 -41.13485 10741 ft 239 kts 218°
2026-05-05 01:23 -21.38160 -41.14560 10741 ft 239 kts 218°
2026-05-05 01:23 -21.39500 -41.15648 10742 ft 239 kts 218°
2026-05-05 01:23 -21.40825 -41.16723 10741 ft 239 kts 218°
2026-05-05 01:24 -21.42143 -41.17794 10741 ft 239 kts 218°
2026-05-05 01:24 -21.43476 -41.18876 10741 ft 239 kts 218°
2026-05-05 01:24 -21.44812 -41.19962 10742 ft 239 kts 218°
2026-05-05 01:24 -21.46146 -41.21046 10742 ft 240 kts 219°
2026-05-05 01:25 -21.47477 -41.22128 10739 ft 240 kts 218°
2026-05-05 01:25 -21.48806 -41.23209 10738 ft 241 kts 218°
2026-05-05 01:25 -21.50161 -41.24310 10738 ft 241 kts 219°
2026-05-05 01:25 -21.51490 -41.25391 10738 ft 241 kts 219°
2026-05-05 01:26 -21.52831 -41.26483 10739 ft 241 kts 218°
2026-05-05 01:26 -21.54174 -41.27575 10739 ft 241 kts 219°
2026-05-05 01:26 -21.55517 -41.28669 10738 ft 241 kts 218°
2026-05-05 01:26 -21.56854 -41.29757 10738 ft 241 kts 218°
2026-05-05 01:27 -21.58197 -41.30850 10737 ft 241 kts 218°
2026-05-05 01:27 -21.59534 -41.31940 10737 ft 241 kts 218°
2026-05-05 01:27 -21.60873 -41.33030 10738 ft 241 kts 219°
2026-05-05 01:27 -21.62206 -41.34117 10739 ft 241 kts 219°
2026-05-05 01:28 -21.63549 -41.35212 10738 ft 241 kts 219°
2026-05-05 01:28 -21.64870 -41.36289 10739 ft 241 kts 219°
2026-05-05 01:28 -21.66220 -41.37389 10740 ft 241 kts 219°
2026-05-05 01:28 -21.67564 -41.38486 10740 ft 241 kts 219°
2026-05-05 01:29 -21.68892 -41.39570 10742 ft 241 kts 219°
2026-05-05 01:29 -21.70231 -41.40662 10742 ft 242 kts 219°
2026-05-05 01:29 -21.71579 -41.41763 10741 ft 242 kts 219°
2026-05-05 01:29 -21.72914 -41.42853 10745 ft 242 kts 219°
2026-05-05 01:30 -21.74258 -41.43950 10746 ft 241 kts 219°
2026-05-05 01:30 -21.75605 -41.45050 10746 ft 241 kts 219°
2026-05-05 01:30 -21.76931 -41.46134 10745 ft 241 kts 219°
2026-05-05 01:30 -21.78267 -41.47226 10745 ft 241 kts 219°
2026-05-05 01:31 -21.79609 -41.48323 10745 ft 241 kts 219°
2026-05-05 01:31 -21.80942 -41.49413 10747 ft 240 kts 219°
2026-05-05 01:31 -21.82288 -41.50514 10750 ft 241 kts 219°
2026-05-05 01:31 -21.83614 -41.51598 10752 ft 241 kts 219°
2026-05-05 01:32 -21.84942 -41.52685 10753 ft 241 kts 219°
2026-05-05 01:32 -21.86288 -41.53788 10755 ft 241 kts 219°
2026-05-05 01:32 -21.87617 -41.54875 10754 ft 241 kts 219°
2026-05-05 01:32 -21.88957 -41.55973 10753 ft 241 kts 219°
2026-05-05 01:33 -21.90302 -41.57074 10756 ft 241 kts 219°
2026-05-05 01:33 -21.91630 -41.58162 10756 ft 241 kts 219°
2026-05-05 01:33 -21.92970 -41.59260 10755 ft 241 kts 219°
2026-05-05 01:33 -21.94309 -41.60357 10752 ft 241 kts 219°
2026-05-05 01:34 -21.95641 -41.61449 10749 ft 241 kts 219°
2026-05-05 01:34 -21.96980 -41.62548 10745 ft 240 kts 219°
2026-05-05 01:34 -21.98308 -41.63637 10740 ft 240 kts 219°
2026-05-05 01:34 -21.99631 -41.64723 10737 ft 240 kts 219°
2026-05-05 01:35 -22.00967 -41.65819 10738 ft 239 kts 220°
2026-05-05 01:35 -22.02287 -41.66902 10738 ft 239 kts 219°
2026-05-05 01:35 -22.03618 -41.67995 10739 ft 239 kts 220°
2026-05-05 01:35 -22.04947 -41.69087 10738 ft 239 kts 220°
2026-05-05 01:36 -22.06271 -41.70174 10736 ft 239 kts 220°
2026-05-05 01:36 -22.07593 -41.71260 10736 ft 239 kts 220°
2026-05-05 01:36 -22.08911 -41.72344 10732 ft 240 kts 220°
2026-05-05 01:36 -22.10254 -41.73448 10732 ft 240 kts 220°
2026-05-05 01:37 -22.11578 -41.74536 10734 ft 239 kts 220°
2026-05-05 01:37 -22.12904 -41.75628 10734 ft 239 kts 219°
2026-05-05 01:37 -22.14222 -41.76712 10738 ft 239 kts 219°
2026-05-05 01:37 -22.15546 -41.77800 10737 ft 239 kts 219°
2026-05-05 01:38 -22.16880 -41.78899 10737 ft 239 kts 219°
2026-05-05 01:38 -22.18192 -41.79979 10737 ft 239 kts 220°
2026-05-05 01:38 -22.19515 -41.81068 10736 ft 239 kts 219°
2026-05-05 01:38 -22.20848 -41.82166 10734 ft 239 kts 220°
2026-05-05 01:39 -22.22168 -41.83254 10732 ft 239 kts 219°
2026-05-05 01:39 -22.23480 -41.84335 10733 ft 238 kts 220°
2026-05-05 01:39 -22.24812 -41.85432 10735 ft 238 kts 220°
2026-05-05 01:39 -22.26132 -41.86521 10731 ft 238 kts 220°
2026-05-05 01:40 -22.27443 -41.87602 10732 ft 238 kts 219°
2026-05-05 01:40 -22.28766 -41.88693 10732 ft 238 kts 220°
2026-05-05 01:40 -22.30074 -41.89772 10733 ft 237 kts 220°
2026-05-05 01:40 -22.31400 -41.90867 10734 ft 237 kts 219°
2026-05-05 01:41 -22.32696 -41.91936 10734 ft 237 kts 220°
2026-05-05 01:41 -22.34017 -41.93028 10733 ft 237 kts 219°
2026-05-05 01:41 -22.35334 -41.94115 10731 ft 238 kts 219°
2026-05-05 01:41 -22.36643 -41.95196 10733 ft 238 kts 219°
2026-05-05 01:42 -22.37967 -41.96289 10732 ft 238 kts 220°
2026-05-05 01:42 -22.39275 -41.97371 10731 ft 237 kts 219°
2026-05-05 01:42 -22.40598 -41.98464 10732 ft 237 kts 219°
2026-05-05 01:42 -22.41911 -41.99551 10728 ft 237 kts 219°
2026-05-05 01:43 -22.43206 -42.00621 10733 ft 237 kts 220°
2026-05-05 01:43 -22.44527 -42.01714 10733 ft 237 kts 220°
2026-05-05 01:43 -22.45785 -42.02755 10734 ft 237 kts 220°
2026-05-05 01:43 -22.47095 -42.03840 10731 ft 236 kts 220°
2026-05-05 01:44 -22.48404 -42.04924 10731 ft 236 kts 220°
2026-05-05 01:44 -22.49712 -42.06006 10727 ft 236 kts 220°
2026-05-05 01:44 -22.51030 -42.07098 10729 ft 236 kts 220°
2026-05-05 01:44 -22.52325 -42.08173 10730 ft 236 kts 220°
2026-05-05 01:45 -22.53562 -42.09343 10731 ft 236 kts 224°
2026-05-05 01:45 -22.54798 -42.10528 10733 ft 236 kts 224°
2026-05-05 01:45 -22.56026 -42.11704 10727 ft 237 kts 224°
2026-05-05 01:45 -22.57254 -42.12880 10728 ft 236 kts 224°
2026-05-05 01:46 -22.58492 -42.14066 10725 ft 236 kts 223°
2026-05-05 01:46 -22.59729 -42.15250 10726 ft 236 kts 223°
2026-05-05 01:46 -22.60956 -42.16425 10728 ft 236 kts 224°
2026-05-05 01:46 -22.62194 -42.17611 10725 ft 236 kts 224°
2026-05-05 01:47 -22.63435 -42.18800 10726 ft 236 kts 224°
2026-05-05 01:47 -22.64659 -42.19973 10727 ft 236 kts 224°
2026-05-05 01:47 -22.65891 -42.21153 10725 ft 236 kts 224°
2026-05-05 01:47 -22.67126 -42.22339 10723 ft 236 kts 224°
2026-05-05 01:48 -22.68353 -42.23515 10724 ft 236 kts 224°
2026-05-05 01:48 -22.69574 -42.24687 10725 ft 236 kts 224°
2026-05-05 01:48 -22.70811 -42.25874 10728 ft 236 kts 224°
2026-05-05 01:48 -22.72043 -42.27056 10728 ft 236 kts 224°
2026-05-05 01:49 -22.73276 -42.28240 10727 ft 237 kts 224°
2026-05-05 01:49 -22.74501 -42.29416 10724 ft 237 kts 224°
2026-05-05 01:49 -22.75740 -42.30607 10722 ft 237 kts 224°
2026-05-05 01:49 -22.76969 -42.31786 10725 ft 237 kts 224°
2026-05-05 01:50 -22.78214 -42.32983 10723 ft 237 kts 224°
2026-05-05 01:50 -22.79451 -42.34173 10723 ft 237 kts 224°
2026-05-05 01:50 -22.80683 -42.35357 10723 ft 237 kts 224°
2026-05-05 01:50 -22.81912 -42.36539 10721 ft 237 kts 224°
2026-05-05 01:51 -22.83137 -42.37717 10722 ft 236 kts 224°
2026-05-05 01:51 -22.84366 -42.38900 10723 ft 236 kts 224°
2026-05-05 01:51 -22.85599 -42.40087 10725 ft 236 kts 224°
2026-05-05 01:51 -22.86834 -42.41276 10719 ft 236 kts 224°
2026-05-05 01:52 -22.88062 -42.42458 10719 ft 236 kts 224°
2026-05-05 01:52 -22.89289 -42.43640 10712 ft 236 kts 224°
2026-05-05 01:52 -22.90519 -42.44825 10710 ft 236 kts 224°
2026-05-05 01:52 -22.91761 -42.46021 10710 ft 236 kts 224°
2026-05-05 01:53 -22.92977 -42.47194 10709 ft 236 kts 224°
2026-05-05 01:53 -22.94223 -42.48395 10708 ft 237 kts 224°
2026-05-05 01:53 -22.95427 -42.49602 10701 ft 235 kts 233°
2026-05-05 01:53 -22.95982 -42.51230 10708 ft 232 kts 261°
2026-05-05 01:54 -22.96257 -42.52946 10705 ft 232 kts 261°
2026-05-05 01:54 -22.96538 -42.54670 10705 ft 233 kts 261°
2026-05-05 01:54 -22.96820 -42.56395 10702 ft 232 kts 260°
2026-05-05 01:54 -22.97103 -42.58119 10704 ft 232 kts 260°
2026-05-05 01:55 -22.97388 -42.59860 10702 ft 232 kts 260°
2026-05-05 01:55 -22.97669 -42.61568 10699 ft 232 kts 260°
2026-05-05 01:55 -22.97951 -42.63286 10701 ft 232 kts 260°
2026-05-05 01:55 -22.98233 -42.65004 10700 ft 232 kts 261°
2026-05-05 01:56 -22.98517 -42.66734 10703 ft 232 kts 261°
2026-05-05 01:56 -22.98797 -42.68442 10704 ft 232 kts 261°
2026-05-05 01:56 -22.99080 -42.70173 10702 ft 232 kts 261°
2026-05-05 01:56 -22.99362 -42.71892 10702 ft 232 kts 261°
2026-05-05 01:57 -22.99644 -42.73621 10702 ft 232 kts 261°
2026-05-05 01:57 -22.99924 -42.75333 10706 ft 232 kts 261°
2026-05-05 01:57 -23.00210 -42.77081 10710 ft 232 kts 261°
2026-05-05 01:57 -23.00488 -42.78787 10707 ft 233 kts 261°
2026-05-05 01:58 -23.00772 -42.80532 10702 ft 233 kts 261°
2026-05-05 01:58 -23.01054 -42.82258 10701 ft 233 kts 261°
2026-05-05 01:58 -23.01333 -42.83972 10700 ft 233 kts 261°
2026-05-05 01:58 -23.01615 -42.85707 10700 ft 233 kts 261°
2026-05-05 01:59 -23.01897 -42.87441 10703 ft 233 kts 261°
2026-05-05 01:59 -23.02179 -42.89177 10704 ft 232 kts 261°
2026-05-05 01:59 -23.02457 -42.90887 10702 ft 232 kts 261°
2026-05-05 01:59 -23.02739 -42.92624 10704 ft 232 kts 261°
2026-05-05 02:00 -23.03019 -42.94350 10702 ft 232 kts 261°
2026-05-05 02:00 -23.03298 -42.96076 10703 ft 233 kts 261°
2026-05-05 02:00 -23.03576 -42.97790 10697 ft 233 kts 261°
2026-05-05 02:00 -23.03856 -42.99520 10702 ft 233 kts 261°
2026-05-05 02:01 -23.04105 -43.01268 10700 ft 232 kts 264°
2026-05-05 02:01 -23.04293 -43.02991 10699 ft 232 kts 263°
2026-05-05 02:01 -23.04486 -43.04741 10702 ft 232 kts 263°
2026-05-05 02:01 -23.04679 -43.06495 10703 ft 233 kts 263°
2026-05-05 02:02 -23.04871 -43.08233 10702 ft 233 kts 263°
2026-05-05 02:02 -23.05062 -43.09964 10699 ft 233 kts 263°
2026-05-05 02:02 -23.05254 -43.11707 10699 ft 232 kts 263°
2026-05-05 02:02 -23.05446 -43.13447 10699 ft 232 kts 263°
2026-05-05 02:03 -23.05637 -43.15189 10699 ft 232 kts 263°
2026-05-05 02:03 -23.05827 -43.16917 10700 ft 232 kts 263°
2026-05-05 02:03 -23.06020 -43.18677 10700 ft 232 kts 263°
2026-05-05 02:03 -23.06209 -43.20395 10701 ft 232 kts 263°
2026-05-05 02:04 -23.06401 -43.22147 10699 ft 232 kts 263°
2026-05-05 02:04 -23.06590 -43.23872 10699 ft 232 kts 263°
2026-05-05 02:04 -23.06780 -43.25611 10701 ft 232 kts 263°
2026-05-05 02:04 -23.06969 -43.27344 10702 ft 232 kts 263°
2026-05-05 02:05 -23.07160 -43.29089 10707 ft 232 kts 263°
2026-05-05 02:05 -23.07350 -43.30834 10710 ft 232 kts 263°
2026-05-05 02:05 -23.07539 -43.32571 10712 ft 232 kts 263°
2026-05-05 02:05 -23.07727 -43.34300 10711 ft 232 kts 263°
2026-05-05 02:06 -23.07918 -43.36055 10711 ft 232 kts 263°
2026-05-05 02:06 -23.08106 -43.37789 10709 ft 232 kts 264°
2026-05-05 02:06 -23.08294 -43.39522 10709 ft 232 kts 264°
2026-05-05 02:06 -23.08482 -43.41259 10710 ft 232 kts 263°
2026-05-05 02:07 -23.08671 -43.43005 10708 ft 232 kts 263°
2026-05-05 02:07 -23.08859 -43.44744 10711 ft 232 kts 263°
2026-05-05 02:07 -23.09047 -43.46484 10711 ft 232 kts 263°
2026-05-05 02:07 -23.09312 -43.48209 10707 ft 233 kts 256°
2026-05-05 02:08 -23.09727 -43.49900 10704 ft 232 kts 256°
2026-05-05 02:08 -23.10137 -43.51591 10711 ft 232 kts 256°
2026-05-05 02:08 -23.10545 -43.53282 10712 ft 233 kts 256°
2026-05-05 02:08 -23.10957 -43.54993 10709 ft 233 kts 256°
2026-05-05 02:09 -23.11364 -43.56692 10710 ft 233 kts 256°
2026-05-05 02:09 -23.11773 -43.58399 10707 ft 233 kts 256°
2026-05-05 02:09 -23.12181 -43.60098 10702 ft 233 kts 256°
2026-05-05 02:09 -23.12589 -43.61805 10702 ft 233 kts 256°
2026-05-05 02:10 -23.12995 -43.63497 10707 ft 232 kts 256°
2026-05-05 02:10 -23.13403 -43.65204 10698 ft 232 kts 256°
2026-05-05 02:10 -23.13804 -43.66885 10708 ft 232 kts 256°
2026-05-05 02:10 -23.14210 -43.68583 10711 ft 232 kts 256°
2026-05-05 02:11 -23.14620 -43.70303 10717 ft 233 kts 256°
2026-05-05 02:11 -23.15027 -43.72006 10710 ft 233 kts 256°
2026-05-05 02:11 -23.15433 -43.73706 10706 ft 233 kts 256°
2026-05-05 02:11 -23.15838 -43.75407 10707 ft 233 kts 256°
2026-05-05 02:12 -23.16244 -43.77111 10704 ft 233 kts 256°
2026-05-05 02:12 -23.17056 -43.80522 10705 ft 233 kts 256°
2026-05-05 02:12 -23.17463 -43.82232 10707 ft 233 kts 256°
2026-05-05 02:13 -23.17865 -43.83921 10711 ft 233 kts 256°
2026-05-05 02:13 -23.18268 -43.85616 10714 ft 233 kts 256°
2026-05-05 02:13 -23.18675 -43.87331 10717 ft 233 kts 256°
2026-05-05 02:13 -23.19077 -43.89022 10716 ft 233 kts 256°
2026-05-05 02:14 -23.19484 -43.90738 10717 ft 233 kts 256°
2026-05-05 02:14 -23.19889 -43.92442 10715 ft 233 kts 256°
2026-05-05 02:14 -23.20294 -43.94152 10712 ft 233 kts 256°
2026-05-05 02:14 -23.20695 -43.95845 10707 ft 233 kts 256°
2026-05-05 02:15 -23.21096 -43.97540 10711 ft 232 kts 256°
2026-05-05 02:15 -23.21500 -43.99247 10711 ft 232 kts 256°
2026-05-05 02:15 -23.21900 -44.00937 10711 ft 233 kts 256°
2026-05-05 02:15 -23.22307 -44.02657 10709 ft 233 kts 256°
2026-05-05 02:16 -23.22705 -44.04341 10707 ft 233 kts 256°
2026-05-05 02:16 -23.23108 -44.06047 10706 ft 232 kts 256°
2026-05-05 02:16 -23.23514 -44.07764 10706 ft 232 kts 256°
2026-05-05 02:16 -23.23916 -44.09467 10700 ft 232 kts 256°
2026-05-05 02:17 -23.24315 -44.11160 10691 ft 232 kts 256°
2026-05-05 02:17 -23.24675 -44.12856 10691 ft 232 kts 259°
2026-05-05 02:17 -23.24989 -44.14586 10689 ft 232 kts 259°
2026-05-05 02:17 -23.25303 -44.16307 10691 ft 232 kts 259°
2026-05-05 02:18 -23.25616 -44.18025 10694 ft 232 kts 259°
2026-05-05 02:18 -23.25928 -44.19736 10693 ft 232 kts 259°
2026-05-05 02:18 -23.26243 -44.21463 10685 ft 231 kts 259°
2026-05-05 02:18 -23.26557 -44.23182 10685 ft 231 kts 259°
2026-05-05 02:19 -23.26869 -44.24895 10681 ft 231 kts 259°
2026-05-05 02:19 -23.27178 -44.26592 10696 ft 231 kts 259°
2026-05-05 02:19 -23.27494 -44.28328 10690 ft 232 kts 259°
2026-05-05 02:19 -23.27807 -44.30047 10684 ft 232 kts 259°
2026-05-05 02:20 -23.28119 -44.31762 10682 ft 231 kts 259°
2026-05-05 02:20 -23.28430 -44.33472 10683 ft 231 kts 259°
2026-05-05 02:20 -23.28742 -44.35192 10690 ft 231 kts 259°
2026-05-05 02:20 -23.29054 -44.36910 10692 ft 232 kts 259°
2026-05-05 02:21 -23.29366 -44.38632 10692 ft 232 kts 259°
2026-05-05 02:21 -23.29677 -44.40348 10686 ft 232 kts 259°
2026-05-05 02:21 -23.29985 -44.42050 10683 ft 232 kts 259°
2026-05-05 02:21 -23.30296 -44.43766 10688 ft 231 kts 259°
2026-05-05 02:22 -23.30664 -44.45476 10685 ft 232 kts 251°
2026-05-05 02:22 -23.31237 -44.47108 10685 ft 231 kts 250°
2026-05-05 02:22 -23.31806 -44.48738 10679 ft 231 kts 250°
2026-05-05 02:22 -23.32378 -44.50386 10680 ft 231 kts 250°
2026-05-05 02:23 -23.32938 -44.52007 10690 ft 231 kts 250°
2026-05-05 02:23 -23.33504 -44.53648 10694 ft 232 kts 250°
2026-05-05 02:23 -23.34070 -44.55290 10690 ft 232 kts 250°
2026-05-05 02:23 -23.34638 -44.56938 10693 ft 232 kts 250°
2026-05-05 02:24 -23.35206 -44.58587 10691 ft 232 kts 250°
2026-05-05 02:24 -23.35772 -44.60229 10690 ft 232 kts 250°
2026-05-05 02:24 -23.36337 -44.61871 10696 ft 232 kts 250°
2026-05-05 02:24 -23.36899 -44.63508 10678 ft 232 kts 250°
2026-05-05 02:25 -23.37467 -44.65157 10690 ft 231 kts 251°
2026-05-05 02:25 -23.38027 -44.66788 10674 ft 233 kts 251°
2026-05-05 02:25 -23.38604 -44.68467 10572 ft 236 kts 251°
2026-05-05 02:25 -23.39174 -44.70130 10457 ft 236 kts 251°
2026-05-05 02:26 -23.39751 -44.71811 10330 ft 236 kts 251°
2026-05-05 02:26 -23.40320 -44.73471 10208 ft 235 kts 251°
2026-05-05 02:26 -23.40891 -44.75135 10078 ft 234 kts 251°
2026-05-05 02:26 -23.41459 -44.76793 9966 ft 234 kts 251°
2026-05-05 02:27 -23.42028 -44.78452 9861 ft 234 kts 251°
2026-05-05 02:27 -23.42597 -44.80113 9739 ft 233 kts 252°
2026-05-05 02:27 -23.43165 -44.81772 9610 ft 233 kts 251°
2026-05-05 02:27 -23.43726 -44.83410 9488 ft 232 kts 252°
2026-05-05 02:28 -23.44287 -44.85049 9365 ft 230 kts 252°
2026-05-05 02:28 -23.44841 -44.86669 9253 ft 228 kts 252°
2026-05-05 02:28 -23.45398 -44.88296 9150 ft 230 kts 252°
2026-05-05 02:28 -23.45960 -44.89941 9015 ft 234 kts 252°
2026-05-05 02:29 -23.46529 -44.91604 8879 ft 236 kts 252°
2026-05-05 02:29 -23.47107 -44.93297 8758 ft 238 kts 252°
2026-05-05 02:29 -23.47681 -44.94980 8633 ft 235 kts 252°
2026-05-05 02:29 -23.48248 -44.96641 8506 ft 233 kts 252°
2026-05-05 02:30 -23.48805 -44.98275 8397 ft 231 kts 252°
2026-05-05 02:30 -23.49368 -44.99926 8260 ft 229 kts 252°
2026-05-05 02:30 -23.49918 -45.01538 8136 ft 229 kts 252°
2026-05-05 02:30 -23.50474 -45.03170 8018 ft 228 kts 252°
2026-05-05 02:31 -23.51022 -45.04779 7911 ft 228 kts 252°
2026-05-05 02:31 -23.51578 -45.06411 7800 ft 228 kts 252°
2026-05-05 02:31 -23.52121 -45.08033 7688 ft 228 kts 257°
2026-05-05 02:31 -23.52219 -45.09735 7578 ft 224 kts 272°
2026-05-05 02:32 -23.52232 -45.11431 7456 ft 225 kts 272°
2026-05-05 02:32 -23.52250 -45.13118 7333 ft 225 kts 272°
2026-05-05 02:32 -23.52270 -45.14830 7211 ft 225 kts 272°
2026-05-05 02:32 -23.52291 -45.16524 7098 ft 226 kts 272°
2026-05-05 02:33 -23.52313 -45.18249 6984 ft 226 kts 272°
2026-05-05 02:33 -23.52334 -45.19940 6878 ft 226 kts 272°
2026-05-05 02:33 -23.52355 -45.21659 6766 ft 226 kts 272°
2026-05-05 02:33 -23.52377 -45.23376 6654 ft 226 kts 272°
2026-05-05 02:34 -23.52398 -45.25098 6546 ft 226 kts 272°
2026-05-05 02:34 -23.52418 -45.26796 6428 ft 226 kts 272°
2026-05-05 02:34 -23.52439 -45.28507 6304 ft 226 kts 272°
2026-05-05 02:34 -23.52460 -45.30222 6180 ft 226 kts 272°
2026-05-05 02:35 -23.52480 -45.31930 6059 ft 226 kts 272°
2026-05-05 02:35 -23.52500 -45.33646 5937 ft 226 kts 272°
2026-05-05 02:35 -23.52520 -45.35356 5821 ft 226 kts 272°
2026-05-05 02:35 -23.52539 -45.37067 5698 ft 227 kts 272°
2026-05-05 02:36 -23.52559 -45.38802 5578 ft 227 kts 272°
2026-05-05 02:36 -23.52579 -45.40519 5458 ft 227 kts 272°
2026-05-05 02:36 -23.52598 -45.42243 5340 ft 227 kts 272°
2026-05-05 02:36 -23.52617 -45.43942 5294 ft 224 kts 272°
2026-05-05 02:37 -23.52636 -45.45632 5295 ft 221 kts 272°
2026-05-05 02:37 -23.52655 -45.47283 5295 ft 218 kts 272°
2026-05-05 02:37 -23.52673 -45.48925 5300 ft 216 kts 272°
2026-05-05 02:37 -23.52691 -45.50576 5302 ft 215 kts 272°
2026-05-05 02:38 -23.52708 -45.52184 5303 ft 214 kts 272°
2026-05-05 02:38 -23.52726 -45.53805 5302 ft 214 kts 272°
2026-05-05 02:38 -23.52745 -45.55420 5298 ft 213 kts 272°
2026-05-05 02:38 -23.52764 -45.57050 5296 ft 213 kts 272°
2026-05-05 02:39 -23.52781 -45.58657 5288 ft 212 kts 272°
2026-05-05 02:39 -23.52797 -45.60264 5286 ft 212 kts 272°
2026-05-05 02:39 -23.52813 -45.61856 5272 ft 212 kts 272°
2026-05-05 02:39 -23.52829 -45.63471 5260 ft 212 kts 272°
2026-05-05 02:40 -23.52845 -45.65072 5253 ft 212 kts 272°
2026-05-05 02:40 -23.52860 -45.66662 5254 ft 212 kts 272°
2026-05-05 02:40 -23.52876 -45.68273 5254 ft 212 kts 272°
2026-05-05 02:40 -23.52891 -45.69884 5253 ft 212 kts 272°
2026-05-05 02:41 -23.52905 -45.71476 5263 ft 212 kts 272°
2026-05-05 02:41 -23.52921 -45.73092 5269 ft 212 kts 273°
2026-05-05 02:41 -23.52935 -45.74691 5263 ft 212 kts 272°
2026-05-05 02:41 -23.52950 -45.76301 5274 ft 212 kts 273°
2026-05-05 02:42 -23.52964 -45.77888 5288 ft 212 kts 272°
2026-05-05 02:42 -23.52978 -45.79502 5306 ft 212 kts 273°
2026-05-05 02:42 -23.52992 -45.81109 5318 ft 211 kts 273°
2026-05-05 02:42 -23.53006 -45.82703 5318 ft 211 kts 272°
2026-05-05 02:43 -23.53020 -45.84302 5325 ft 211 kts 272°
2026-05-05 02:43 -23.53205 -45.85896 5323 ft 213 kts 264°
2026-05-05 02:43 -23.53445 -45.87488 5297 ft 214 kts 264°
2026-05-05 02:43 -23.53686 -45.89115 5203 ft 218 kts 264°
2026-05-05 02:44 -23.53925 -45.90741 5148 ft 219 kts 264°
2026-05-05 02:44 -23.54165 -45.92377 5095 ft 219 kts 264°
2026-05-05 02:44 -23.54407 -45.94024 5050 ft 220 kts 264°
2026-05-05 02:44 -23.54649 -45.95673 5001 ft 219 kts 264°
2026-05-05 02:45 -23.54890 -45.97313 4948 ft 220 kts 264°
2026-05-05 02:45 -23.55128 -45.98943 4904 ft 220 kts 264°
2026-05-05 02:45 -23.55369 -46.00588 4868 ft 220 kts 264°
2026-05-05 02:45 -23.55610 -46.02235 4792 ft 220 kts 264°
2026-05-05 02:46 -23.55828 -46.03905 4562 ft 221 kts 270°
2026-05-05 02:46 -23.55563 -46.05519 4388 ft 216 kts 287°
2026-05-05 02:46 -23.55182 -46.07095 4194 ft 215 kts 287°
2026-05-05 02:46 -23.54684 -46.08571 3956 ft 203 kts 308°
2026-05-05 02:47 -23.53844 -46.09756 3786 ft 192 kts 311°
2026-05-05 02:47 -23.53195 -46.10999 3623 ft 189 kts 283°
2026-05-05 02:47 -23.53414 -46.12378 3461 ft 188 kts 241°
2026-05-05 02:47 -23.54405 -46.13164 3421 ft 175 kts 182°
2026-05-05 02:48 -23.55292 -46.12489 3248 ft 164 kts 103°
2026-05-05 02:48 -23.55442 -46.11322 3225 ft 149 kts 94°
2026-05-05 02:48 -23.55606 -46.10290 3140 ft 116 kts 99°
2026-05-05 02:48 -23.55726 -46.09497 2923 ft 100 kts 95°
2026-05-05 02:49 -23.55853 -46.08769 2723 ft 92 kts 98°
2026-05-05 02:49 -23.56031 -46.08113 2581 ft 90 kts 103°
2026-05-05 02:49 -23.56229 -46.07479 2456 ft 82 kts 105°
2026-05-05 02:49 -23.56376 -46.07015 2444 ft 47 kts 110°
2026-05-05 02:50 -23.56447 -46.06797 2448 ft 15 kts 109°
2026-05-05 02:50 -23.56470 -46.06753 2449 ft 6 kts 162°
2026-05-05 02:50 -23.56497 -46.06759 2449 ft 3 kts 193°
2026-05-05 02:50 -23.56524 -46.06772 2449 ft 4 kts 238°
2026-05-05 02:51 -23.56524 -46.06802 2449 ft 3 kts 285°
2026-05-05 02:51 -23.56519 -46.06804 2449 ft 0 kts 22°